User: anonymous   Login
Location: Sweet Grass
(48.9965°N, 111.9649°W)
Time: 22:03:53
(UTC+00:00)
Language:

STARS - Orbit

View from above orbital plane
View from above orbital plane
View from above satellite
View from above satellite

Ground track
Ground track

The orbit data is extracted from the following two-line orbital elements,

1 33498U 09002G   23080.55875746  .00003914  00000-0  50698-3 0  9996
2 33498  98.1443 342.0029 0011978  78.5277 281.7279 14.81381806762854
Epoch (UTC): 21 March 2023 13:24:36
Eccentricity: 0.0011978
inclination: 98.1443°
perigee height: 616 km
apogee height: 633 km
right ascension of ascending node: 342.0029°
argument of perigee: 78.5277°
revolutions per day: 14.81381806
mean anomaly at epoch: 281.7279°
orbit number at epoch: 76285

The dashed part of the orbit path shows where the satellite is in the earth's shadow,  

DLR